Location: ?????
(42.2640°N, 43.4211°E)
Time: 14:33:08
(UTC+00:00)

NOSS 2-3 (D) - Pass Details

Date: 07 August 2020
Orbit: 573 x 1638 km, 63.4° (Epoch: 17 September)

Event Time Altitude Azimuth Distance (km) Brightness Sun altitude
Exits shadow 00:46:26 21° 221° (SW) 1,344 4.7 -13.4°
Maximum altitude 00:49:12 79° 305° (NW) 640 3.6 -13.0°
Drops below altitude 10° 00:54:02 10° 34° (NNE) 2,194 7.6 -12.3°
Sets 00:56:39 0° 35° (NE) 3,257 8.8 -11.9°
